Regional Weather Roundup
Issued by NWS Grand Forks, ND

Home | Current Version | Previous Version | Graphics & Text | Print | Product List | Glossary On
Versions: 1 2 3 4 5 6 7 8 9 10 11 12 13 14 15 16 17 18 19 20 21 22 23 24 25 26 27 28 29 30 31 32 33 34 35 36 37 38 39 40 41 42 43 44 45 46 47 48 49 50
000
ASUS43 KFGF 200931
RWRFGF
PRAIRIE TO PINES  WEATHER ROUNDUP
NATIONAL WEATHER SERVICE EASTERN NORTH DAKOTA/GRAND FORKS ND
400 AM CDT SAT SEP 20 2014

 **SATELLITE DATA USED TO AUGMENT SKY COVER AT AUTOMATED STATIONS**
 *****  WEATHER ACROSS EASTERN NORTH DAKOTA  *****

CITY           SKY/WX    TMP DP  RH WIND       PRES   REMARKS
GRAND FORKS    CLEAR     51  49  92 W3        29.74R
GRAND FRKS AFB CLEAR     51  51  99 NW7       29.76R
GRAND FRKS NWS   N/A     50 N/A N/A NW2         N/A
DEVILS LAKE      N/A     52  45  76 CALM      29.77S VSB 1/2
FARGO          CLEAR     56  54  93 NW8       29.76R
WAHPETON ARPT  SUNNY     55  52  88 NW7       29.78R
$$

 ***** WEATHER ACROSS CENTRAL AND WESTERN NORTH DAKOTA  *****

CITY           SKY/WX    TMP DP  RH WIND       PRES   REMARKS
BISMARCK       MOCLDY    56  52  86 W3        29.86S
MINOT          CLEAR     53  49  86 SW12      29.80S
JAMESTOWN      CLEAR     55  53  93 W3        29.81R
MINOT AFB      CLEAR     51  51  99 SW8       29.79S
GARRISON         N/A     50  49  96 CALM      29.84S
WILLISTON      MOCLDY    50  47  89 SW3       29.85F
DICKINSON      CLEAR     51  45  79 W8        29.89R
HETTINGER      CLOUDY    54  47  77 W9        29.94R
$$

 *****  OTHER AIRPORT OBSERVATIONS IN OUR AREA  *****

CITY           SKY/WX    TMP DP  RH WIND       PRES   REMARKS
WALHALLA       CLOUDY    54  54 100 NW5       29.76S
GRAFTON AIRPOR FAIR      52  52 100 NW7       29.76R
VALLEY CITY AR PTSUNNY   54  54 100 W8        29.81R FOG
CANDO          FOG       46  46 100 W6        29.78S VSB 1/2
CAVALIER APRT  PTSUNNY   54  50  87 NW6       29.76R
GWINNER        SUNNY     57  57 100 W8        29.81R
SHEYENNE NWR     N/A     58  55  91 N3        29.95S
ROLLA          FAIR      52  52 100 W8        29.79R
 ***** THE ABOVE OBSERVATIONS ARE NON NWS ARE NOT QUALITY
       CONTROLLED AND MAY MIS-REPORT RAIN FOR SNOW...
$$

  *****  WEATHER ACROSS NORTHERN MINNESOTA  *****

CITY           SKY/WX    TMP DP  RH WIND       PRES   REMARKS
FLAG ISLAND    CLOUDY    54  50  87 NW15      29.66R
WARROAD        CLOUDY    52  48  87 NW12G24   29.71R
ROSEAU         CLOUDY    54  48  82 NW9       29.71R
HALLOCK        CLEAR     54  52  94 NW7       29.74S
THF RVR FALLS  MOCLDY    55  52  88 NW9       29.73S
BAUDETTE       PTCLDY    54  50  86 NW12G18   29.67R
WASKISH        CLOUDY    55  54  94 W10       29.69R
CROOKSTON      CLOUDY    55  54  94 NW7       29.75R
STEPHEN NDAWN    N/A     55  54  94 NW9         N/A
GREENBUSH NDAW   N/A     55  54  94 NW8         N/A
$$
  *****  WEATHER ACROSS CENTRAL AND WEST MINNESOTA  *****

CITY           SKY/WX    TMP DP  RH WIND       PRES   REMARKS
FOSSTON        MOCLDY    55  52  88 NW7       29.75R
BEMIDJI        MOCLDY    55  53  91 NW12G20   29.72R
PARK RAPIDS    PTCLDY    60  56  86 NW16G24   29.72R
ELBOW LAKE     CLOUDY    57  56  95 NW10      29.76R
WADENA         CLOUDY    61  57  88 W6        29.73R
DETROIT LAKES  CLOUDY    57  55  94 NW9       29.77R
MOORHEAD       CLEAR     55  55 100 N6        29.77R
FERGUS FALLS   CLOUDY    59  55  88 N7        29.77R
MORRIS MN      CLEAR     57  55  94 NW7       29.76R
STAPLES        CLOUDY    59  57  94 NW10      29.72R
$$
  *****  WEATHER ELSEWHERE ACROSS MINNESOTA  *****

CITY           SKY/WX    TMP DP  RH WIND       PRES   REMARKS
DULUTH         CLOUDY    62  60  93 W10       29.59S FOG
INTRNTL FALLS  CLOUDY    59  58  96 W10       29.61R
ELY            CLOUDY    63  61  94 W6        29.57F FOG
CLOQUET        CLOUDY    61  59  94 W12       29.61R FOG
WHEATON        CLEAR     55  54  94 W5        29.80R
BRAINERD       PTCLDY    61  58  90 NW12      29.69R
HIBBING        MOCLDY    63  60  90 NW9       29.62R
ALEXANDRIA     MOCLDY    58  56  93 NW7       29.76R
SAINT CLOUD    PTCLDY    66  59  78 W9        29.68R
MINNEAPOLIS    CLOUDY    69  64  84 SW14      29.68F
$$

  *****  WEATHER ACROSS SOUTH DAKOTA  *****

CITY           SKY/WX    TMP DP  RH WIND       PRES   REMARKS
SIOUX FALLS    MOCLDY    64  55  72 NW9       29.82S
BROOKINGS      NOT AVBL
WATERTOWN      PTCLDY    58  54  86 CALM      29.82R
HURON          MOCLDY    58  51  78 NW7       29.83R
SISSETON         N/A     60  58  92 NW9       29.78R
ABERDEEN       CLEAR     55  52  89 W3        29.83R
MITCHELL       MOCLDY    67  54  63 W8        29.86R
PIERRE         PTCLDY    59  54  83 NW9       29.88R
MOBRIDGE       CLEAR     57  53  86 NW8       29.86R
RAPID CITY     MOCLDY    57  47  69 NW7       30.00F
$$

  *****  SOME WEATHER IN NEARBY STATES *****

CITY           SKY/WX    TMP DP  RH WIND       PRES   REMARKS
GLASGOW MT     CLEAR     56  47  71 W10       29.89R
GREAT FALLS MT PTCLDY    52  42  69 SW9       30.10R
CHEYENNE WY    CLEAR     59  43  55 NW9       30.18R
SCOTTSBLUFF NE CLEAR     59  49  69 NW6       30.06R
OMAHA NE       TSTM      71  68  90 E7        29.85S
DES MOINES IA  CLOUDY    73  67  81 CALM      29.90R
DAVENPORT IA   CLOUDY    64  57  78 S12       29.89F
CHICAGO IL     CLOUDY    64  52  64 SW13G22   29.90F
EAU CLAIRE WI  CLOUDY    68  63  84 SW12      29.68R
LA CROSSE WI   CLOUDY    69  62  78 CALM      29.74R
$$

  *****  SOME NATIONAL WEATHER *****

CITY           SKY/WX    TMP DP  RH WIND       PRES   REMARKS
LA GUARDIA NY  MOCLDY    60  52  74 E5        30.32R
RALEIGH NC     PTCLDY    59  56  89 CALM      30.20F
ATLANTA GA     PTCLDY    67  63  87 E12       30.12S
NEW ORLEANS LA PTCLDY    78  69  73 E6        29.92S
OKLAHOMA CITY  MOCLDY    70  67  90 SE6       29.99S
ALBUQUERQUE NM CLEAR     67  57  70 CALM      30.12S
SALT LAKE CITY CLEAR     62  51  67 S5        30.11R
LOS ANGELES CA CLEAR     66  62  86 SE3       29.90S
BOISE ID       CLEAR     59  44  57 CALM      30.06R
SEATTLE WA     CLEAR     63  56  78 N12       30.11S
$$

*** WEATHER ACROSS MANITOBA...SASKATCHEWAN AND ONTARIO ***
                ***ONTARIO***

CITY           SKY/WX    TMP DP  RH WIND       PRES   REMARKS
GERALDTON      DRZL/FOG N/A N/A N/A SE2         N/A  VSB 1/8
THUNDER BAY    CLOUDY    57  57 100 NW6       29.54R FOG
SIOUX LOOKOUT  LGT RAIN  55  55 100 N7        29.56R FOG
TORONTO        MOCLDY    54  50  87 W2        30.02S
BIG TROUT LK   CLOUDY    43  37  81 N6        29.61S
PICKLE LAKE    NOT AVBL
DRYDEN         MOCLDY    57  55  94 NW9       29.60R
KENORA         FOG       54  52  94 NW8       29.65R VSB 1/8
$$
                *** MANITOBA***

CITY           SKY/WX    TMP DP  RH WIND       PRES   REMARKS
BRANDON        FOG       52  52 100 SE3       29.75F VSB 1/4
DAUPHIN        MOCLDY    48  46  93 CALM      29.70S FOG
ISLAND LAKE    CLOUDY    45  41  87 N8        29.67S
PILOT MOUND    NOT AVBL
THE PAS        MOCLDY    50  50 100 S9        29.57F
THOMPSON       PTCLDY    30  30 100 E3        29.65F
WINNIPEG       CLEAR     43  43 100 W8        29.74S
LYNN LAKE      CLOUDY    43  37  81 E8        29.58F
CHURCHILL      CLOUDY    37  36  93 N16G22    29.65S FOG
GILLAM         CLEAR     30  30 100 E2        29.67R
$$
                ***SASKATCHEWAN***

CITY           SKY/WX    TMP DP  RH WIND       PRES   REMARKS
ESTEVAN        CLEAR     50  48  93 SW7       29.81S
KINDERSLEY     CLOUDY    52  48  87 W10       29.94R
LLOYDMINSTER   CLEAR     50  36  57 W15       29.86R
PRINCE ALBERT  CLOUDY    55  46  71 W10       29.71R
REGINA         LGT RAIN  54  52  94 W13       29.86R
YORKTON        MOCLDY    52  50  93 S2        29.70F
N. BATTLEFORD  CLEAR     55  39  54 W13       29.85R
LA RONGE       PTCLDY    50  45  81 W7        29.61R
SASKATOON      PTCLDY    50  48  93 SW9       29.80S
SWIFT CURRENT  LGT RAIN  52  48  87 N10       29.94R
$$
NOTE: THESE ARE AUTOMATED STATIONS WITH LIMITED QUALITY CONTROL
      "FAIR" INDICATES FEW OR NO CLOUDS BELOW 12,000 FEET WITH NO
      SIGNIFICANT WEATHER AND/OR OBSTRUCTIONS TO VISIBILITY.
      SKY/WX - SKY CONDITION AND SIGNIFICANT WEATHER.
      TMP - AIR TEMPERATURE.    DP   - DEWPOINT TEMPERATURE.
      RH  - RELATIVE HUMIDITY.  PRES - PRESSURE.
      HX  - HEAT INDEX.         WCI  - WIND CHILL INDEX.
$


USA.gov is the U.S. government's official web portal to all federal, state and local government web resources and services.